Home > Weather > Market Harborough > Past weeks

Flag for United Kingdom Weather for the Past 2 Weeks in Market Harborough, England, United Kingdom

Now
49 °F

Cool.


Feels Like: 45 °F
Forecast: 35 / 54 °F
Wind: 9 mph from West

Location: Church Lawford

Current Time: Apr 30, 2016 at 12:53:32 PM

Latest Report: Apr 30, 2016 at 12:00 PM


Visibility: 25 mi

Pressure: 30.15 "Hg

Humidity: 57%

Dew Point: 34 °F

Location of Market HarboroughLocation

Historic Weather in Market Harborough — Graph

°F

Market Harborough Temperature Yesterday

Maximum temperature yesterday: 49 °F (at 4:00 PM)
Minimum temperature yesterday: 35 °F (at 5:00 AM)
Average temperature yesterday: 43 °F

High & Low Weather Summary for the Past Weeks

 TemperatureHumidityPressure
High59 °F (Apr 21, 4:00 PM)99% (Apr 20, 7:00 AM)30.49 "Hg (Apr 20, 7:00 AM)
Low32 °F (Apr 23, 6:00 AM)43% (Apr 17, 6:00 PM)29.47 "Hg (Apr 15, 6:00 PM)
Average45 °F74%30.00 "Hg
* Reported Apr 15 11:00 AM — Apr 30 11:00 AM, Market Harborough, Weather by CustomWeather, © 2016

Note: Actual official high and low records may vary slightly from our data, if they occured in-between our weather recording intervals... More about our weather records

Advertising

Market Harborough Weather History for the Previous 24 Hours

Scroll right to see more
 ConditionsComfort  
Time TempWeatherWind HumidityBarometerVisibility
11:00 AM
Sat, Apr 30
46 °FCool.7 mph64%30.15 "Hg25 mi
8:00 AM39 °FChilly.3 mph84%30.13 "Hg22 mi
7:00 AM35 °FChilly.3 mph92%30.11 "Hg19 mi
6:00 AM33 °FChilly.3 mph95%30.09 "Hg19 mi
5:00 AM34 °FChilly.7 mph92%30.06 "Hg22 mi
4:00 AM35 °FChilly.6 mph90%30.06 "Hg28 mi
2:00 AM36 °FChilly.3 mph85%30.02 "Hg31 mi
1:00 AM38 °FChilly.7 mph85%30.01 "Hg22 mi
12:00 AM37 °FChilly.6 mph87%29.99 "Hg28 mi
9:00 PM
Fri, Apr 29
41 °FQuite cool.10 mph79%29.93 "Hg25 mi
8:00 PM44 °FQuite cool.9 mph66%29.90 "Hg28 mi
7:00 PM44 °FQuite cool.9 mph69%29.87 "Hg31 mi
6:00 PM47 °FCool.13 mph60%29.84 "Hg28 mi
5:00 PM47 °FCool.14 mph58%29.83 "Hg28 mi
4:00 PM49 °FCool.18 mph61%29.81 "Hg22 mi
3:00 PM49 °FCool.16 mph58%29.78 "Hg19 mi
2:00 PM47 °FCool.15 mph63%29.77 "Hg19 mi
1:00 PM46 °FCool.17 mph64%29.76 "Hg31 mi
12:00 PM42 °FQuite cool.13 mph75%29.76 "Hg22 mi
Weather by CustomWeather, © 2016

See weather overviewHow to use our weather pages